Miscellaneous Local Product
Issued by NWS North Platte, NE

Home | Current Version | Previous Version | Text Only | Print | Product List | Glossary On
Versions: 1 2 3 4 5 6 7 8 9 10 11 12 13 14 15 16 17 18 19 20 21 22 23 24 25 26 27 28 29 30 31 32 33 34 35 36 37 38 39 40 41 42 43 44 45 46 47 48 49 50
000
AXUS43 KLBF 261410
MISLBF


WESTERN AND NORTH CENTRAL NEBRASKA HOURLY WEATHER ROUNDUP
NATIONAL WEATHER SERVICE NORTH PLATTE NE
800 AM CST SUN FEB 26 2017

NOTE: "FAIR" INDICATES FEW OR NO CLOUDS BELOW 12,000 FEET WITH NO
SIGNIFICANT WEATHER AND/OR OBSTRUCTIONS TO VISIBILITY.

NOTE: STATIONS NOT REPORTING VARIABLES SUCH AS SKY/WEATHER OR
PRESSURE ARE PROVIDED BY RAWS AND APRS NETWORKS AND ARE NOT UNDER
NATIONAL WEATHER SERVICE QUALITY CONTROL.

...OBSERVATIONS IN AND NEAR THE EASTERN PANHANDLE OF NEBRASKA...

CITY           SKY/WX    TMP DP  RH WIND       PRES   REMARKS
PINE RIDGE     CLEAR     16   3  56 SW7       29.81S WCI   6
CHADRON        CLEAR      2  -5  72 W10       29.83R WCI -14
ALLIANCE       CLOUDY    -2  -7  79 W10       29.81R WCI -19
SIDNEY         CLEAR     16   5  62 W16       29.83R WCI   1
CRESCENT LAKE    N/A     14   4  64 NW10        N/A  WCI   1
$$

...OBSERVATIONS IN NORTHERN NEBRASKA AND FAR SOUTHERN SOUTH DAKOTA...

CITY           SKY/WX    TMP DP  RH WIND       PRES   REMARKS
WINNER         FAIR      21  11  65 SW8       29.81R WCI  11
VALENTINE      CLEAR      7   0  73 SW10      29.82R WCI  -8
THEDFORD       CLEAR     12   5  73 W6        29.84R WCI   3
AINSWORTH      CLEAR     13   8  80 W8        29.82R WCI   1
O`NEILL        CLEAR     16  10  75 W7        29.83R WCI   6
ORD            CLEAR     18   9  68 NE3       29.86R
BROKEN BOW     CLEAR     20   9  62 W5        29.85R WCI  13
VALENTINE NWR    N/A     14   6  69 W8          N/A  WCI   3
BUTTE            N/A     14   9  81 W7          N/A  WCI   4
HALSEY           N/A     15   5  64 W7          N/A  WCI   5
CHAMBERS         N/A     17   6  63 W3          N/A
EWING            N/A     15  10  80 W7          N/A  WCI   5
$$

...OBSERVATIONS IN SOUTHWEST NEBRASKA AND FAR NORTHEAST COLORADO...

CITY           SKY/WX    TMP DP  RH WIND       PRES   REMARKS
HOLYOKE        FAIR      14   9  79 W7        29.86S WCI   4
IMPERIAL       CLEAR     19   8  62 NW8       29.88R WCI   9
OGALLALA       CLEAR     16   8  70 SW6       29.86R WCI   8
NORTH PLATTE   CLEAR     14   8  77 W6        29.87S WCI   5
MCCOOK         CLEAR     18  14  84 W7        29.92R WCI   9
LEXINGTON      CLEAR     21  14  73 CALM      29.89R
STAPLETON        N/A     15   8  75 CALM        N/A
GOTHENBURG       N/A     23  12  63 W5          N/A  WCI  17
CALLAWAY         N/A     17  10  74 W10         N/A  WCI   5
$$

...OBSERVATIONS IN CENTRAL LINCOLN COUNTY AREA...

CITY           SKY/WX    TMP DP  RH WIND       PRES   REMARKS
N.P. AIRPORT   CLEAR     14   8  77 W6        29.87S WCI   5
N.P. DOWNTOWN    N/A     18  11  74 W3          N/A
N.P. SOUTHEAST   N/A     17   9  71 CALM        N/A
N.P. HILLCREST   N/A     16  10  78 W5          N/A  WCI   9
$$

...SOME OBSERVATIONS FROM AROUND THE REGION...

CITY           SKY/WX    TMP DP  RH WIND       PRES   REMARKS
LARAMIE        CLOUDY     7  -3  64 SW14      29.72S WCI -10
CHEYENNE       CLOUDY    15   0  51 SW20      29.74S WCI  -2
DENVER         CLEAR     14   4  64 SE13      29.78S WCI   0
AKRON          CLEAR     17   5  59 NW3       29.82S
SCOTTSBLUFF    CLOUDY     7   0  73 NW9       29.83S WCI  -7
RAPID CITY     CLEAR     18   9  68 W6        29.75R WCI  10
BISMARCK       CLOUDY    13   9  84 E5        29.78S WCI   5
PIERRE         CLEAR     19  16  88 W6        29.79R WCI  11
SIOUX FALLS    PTCLDY    20  15  81 W9        29.79R WCI   9
OMAHA          PTCLDY    33  21  61 SW9       29.90R WCI  25
GRAND ISLAND   CLEAR     26  17  68 W13       29.89R WCI  15
KANSAS CITY    CLOUDY    36  28  73 SW14      30.02R WCI  27
WICHITA        CLOUDY    35  22  58 S6        29.93R WCI  30
OKLAHOMA CITY  CLOUDY    40  26  57 S12       29.92R WCI  33
DALLAS         PTSUNNY   48  34  58 S15       29.96R
AMARILLO       CLEAR     34  26  72 NW9       29.84R WCI  27
DODGE CITY     CLEAR     21  14  74 N7        29.89R WCI  12
HAYS           CLEAR     20  15  81 NW5       29.93R WCI  13
GOODLAND       CLEAR     13   7  77 W7        29.87S WCI   3
$$




USA.gov is the U.S. government's official web portal to all federal, state and local government web resources and services.